Time,TemperatureF,DewpointF,PressureIn,WindDirection,WindDirectionDegrees,WindSpeedMPH,WindSpeedGustMPH,Humidity,HourlyPrecipIn,Conditions,Clouds,dailyrainin,SoftwareType,DateUTC
2013-01-19 00:07:00,32.0,32.0,30.46,East,81,0.0,0.0,99,0.00,,,0.00,weatherlink.com 1.10,2013-01-19 05:07:00,
2013-01-19 00:22:00,31.8,32.0,30.46,East,81,0.0,0.0,99,0.00,,,0.00,weatherlink.com 1.10,2013-01-19 05:22:00,
2013-01-19 00:37:00,31.9,32.0,30.46,East,81,0.0,0.0,99,0.00,,,0.00,weatherlink.com 1.10,2013-01-19 05:37:00,
2013-01-19 00:52:00,32.1,32.0,30.46,East,81,0.0,0.0,99,0.00,,,0.00,weatherlink.com 1.10,2013-01-19 05:52:00,
2013-01-19 01:07:00,32.2,32.0,30.45,East,81,1.0,2.0,99,0.00,,,0.00,weatherlink.com 1.10,2013-01-19 06:07:00,
2013-01-19 01:22:00,32.0,32.0,30.45,NE,44,0.0,1.0,99,0.00,,,0.00,weatherlink.com 1.10,2013-01-19 06:22:00,
2013-01-19 01:37:00,31.9,32.0,30.45,ESE,115,0.0,2.0,99,0.00,,,0.00,weatherlink.com 1.10,2013-01-19 06:37:00,
2013-01-19 01:52:00,31.8,32.0,30.45,NNE,24,0.0,3.0,99,0.00,,,0.00,weatherlink.com 1.10,2013-01-19 06:52:00,
2013-01-19 02:07:00,31.3,31.0,30.46,North,360,0.0,3.0,99,0.00,,,0.00,weatherlink.com 1.10,2013-01-19 07:07:00,
2013-01-19 02:22:00,31.2,31.0,30.46,North,360,0.0,0.0,99,0.00,,,0.00,weatherlink.com 1.10,2013-01-19 07:22:00,
2013-01-19 02:37:00,31.1,31.0,30.46,North,360,0.0,1.0,99,0.00,,,0.00,weatherlink.com 1.10,2013-01-19 07:37:00,
2013-01-19 02:52:00,31.3,31.0,30.47,North,360,0.0,1.0,99,0.00,,,0.00,weatherlink.com 1.10,2013-01-19 07:52:00,
2013-01-19 03:07:00,31.0,31.0,30.47,North,5,0.0,2.0,99,0.00,,,0.00,weatherlink.com 1.10,2013-01-19 08:07:00,
2013-01-19 03:22:00,30.9,31.0,30.47,North,5,0.0,2.0,99,0.00,,,0.00,weatherlink.com 1.10,2013-01-19 08:22:00,
2013-01-19 03:37:00,30.8,31.0,30.47,North,5,1.0,2.0,99,0.00,,,0.00,weatherlink.com 1.10,2013-01-19 08:37:00,
2013-01-19 03:52:00,30.8,31.0,30.47,North,5,0.0,1.0,99,0.00,,,0.00,weatherlink.com 1.10,2013-01-19 08:52:00,
2013-01-19 04:08:00,30.9,31.0,30.46,North,5,0.0,2.0,99,0.00,,,0.00,weatherlink.com 1.10,2013-01-19 09:08:00,
2013-01-19 04:23:00,31.1,31.0,30.46,North,5,0.0,1.0,99,0.00,,,0.00,weatherlink.com 1.10,2013-01-19 09:23:00,
2013-01-19 04:38:00,30.7,31.0,30.46,South,169,2.0,3.0,99,0.00,,,0.00,weatherlink.com 1.10,2013-01-19 09:38:00,
2013-01-19 04:53:00,30.7,31.0,30.46,South,169,0.0,2.0,99,0.00,,,0.00,weatherlink.com 1.10,2013-01-19 09:53:00,
2013-01-19 05:08:00,31.1,31.0,30.45,South,169,0.0,1.0,99,0.00,,,0.00,weatherlink.com 1.10,2013-01-19 10:08:00,
2013-01-19 05:23:00,30.9,31.0,30.45,SSW,194,0.0,4.0,99,0.00,,,0.00,weatherlink.com 1.10,2013-01-19 10:23:00,
2013-01-19 05:38:00,30.4,30.0,30.44,SSW,197,1.0,4.0,99,0.00,,,0.00,weatherlink.com 1.10,2013-01-19 10:38:00,
2013-01-19 05:53:00,30.2,30.0,30.44,SSW,209,0.0,0.0,98,0.00,,,0.00,weatherlink.com 1.10,2013-01-19 10:53:00,
2013-01-19 06:08:00,30.5,30.0,30.44,SSW,209,0.0,0.0,99,0.00,,,0.00,weatherlink.com 1.10,2013-01-19 11:08:00,
2013-01-19 07:53:00,29.7,29.0,30.45,North,355,2.0,3.0,98,0.00,,,0.00,weatherlink.com 1.10,2013-01-19 12:53:00,
2013-01-19 08:08:00,29.7,29.0,30.45,SSE,152,0.0,2.0,98,0.00,,,0.00,weatherlink.com 1.10,2013-01-19 13:08:00,
2013-01-19 08:23:00,29.9,29.0,30.45,SSE,152,1.0,2.0,98,0.00,,,0.00,weatherlink.com 1.10,2013-01-19 13:23:00,
2013-01-19 08:38:00,30.0,30.0,30.45,ESE,121,0.0,2.0,98,0.00,,,0.00,weatherlink.com 1.10,2013-01-19 13:38:00,
2013-01-19 08:53:00,30.0,30.0,30.45,ESE,121,1.0,2.0,98,0.00,,,0.00,weatherlink.com 1.10,2013-01-19 13:53:00,
2013-01-19 09:08:00,29.8,29.0,30.46,East,101,1.0,2.0,98,0.00,,,0.00,weatherlink.com 1.10,2013-01-19 14:08:00,
2013-01-19 09:23:00,29.7,29.0,30.46,NNE,13,1.0,2.0,97,0.00,,,0.00,weatherlink.com 1.10,2013-01-19 14:23:00,
2013-01-19 09:38:00,30.3,30.0,30.46,NNE,13,1.0,2.0,98,0.00,,,0.00,weatherlink.com 1.10,2013-01-19 14:38:00,
2013-01-19 09:53:00,30.8,30.0,30.47,NNE,13,1.0,3.0,98,0.00,,,0.00,weatherlink.com 1.10,2013-01-19 14:53:00,
2013-01-19 10:08:00,32.0,32.0,30.46,NNE,16,2.0,4.0,98,0.00,,,0.00,weatherlink.com 1.10,2013-01-19 15:08:00,
2013-01-19 10:23:00,32.9,32.0,30.46,NNE,16,2.0,2.0,97,0.00,,,0.00,weatherlink.com 1.10,2013-01-19 15:23:00,
2013-01-19 10:38:00,34.4,33.0,30.46,NNE,16,3.0,3.0,95,0.00,,,0.00,weatherlink.com 1.10,2013-01-19 15:38:00,
2013-01-19 10:53:00,36.2,34.0,30.45,NE,40,2.0,4.0,90,0.00,,,0.00,weatherlink.com 1.10,2013-01-19 15:53:00,
2013-01-19 11:08:00,37.8,34.0,30.43,North,5,3.0,4.0,85,0.00,,,0.00,weatherlink.com 1.10,2013-01-19 16:08:00,
2013-01-19 11:23:00,39.2,34.0,30.42,NNE,23,1.0,4.0,80,0.00,,,0.00,weatherlink.com 1.10,2013-01-19 16:23:00,
2013-01-19 11:38:00,40.9,34.0,30.41,NNE,13,3.0,4.0,76,0.00,,,0.00,weatherlink.com 1.10,2013-01-19 16:38:00,
2013-01-19 11:53:00,42.1,34.0,30.40,NNE,15,3.0,4.0,74,0.00,,,0.00,weatherlink.com 1.10,2013-01-19 16:53:00,
2013-01-19 12:24:00,44.4,35.0,30.38,North,350,3.0,4.0,69,0.00,,,0.00,weatherlink.com 1.10,2013-01-19 17:24:00,
2013-01-19 12:39:00,45.4,36.0,30.36,North,350,0.0,4.0,71,0.00,,,0.00,weatherlink.com 1.10,2013-01-19 17:39:00,
2013-01-19 12:54:00,46.5,37.0,30.35,North,350,0.0,2.0,70,0.00,,,0.00,weatherlink.com 1.10,2013-01-19 17:54:00,
2013-01-19 13:09:00,47.7,38.0,30.34,WNW,292,0.0,2.0,68,0.00,,,0.00,weatherlink.com 1.10,2013-01-19 18:09:00,
2013-01-19 13:39:00,48.5,39.0,30.32,NNW,342,0.0,3.0,70,0.00,,,0.00,weatherlink.com 1.10,2013-01-19 18:39:00,
2013-01-19 14:09:00,47.2,37.0,30.30,NNW,329,0.0,5.0,69,0.00,,,0.00,weatherlink.com 1.10,2013-01-19 19:09:00,
2013-01-19 14:24:00,47.3,38.0,30.28,North,355,2.0,4.0,70,0.00,,,0.00,weatherlink.com 1.10,2013-01-19 19:24:00,
2013-01-19 14:39:00,47.8,38.0,30.27,NNW,346,1.0,5.0,68,0.00,,,0.00,weatherlink.com 1.10,2013-01-19 19:39:00,
2013-01-19 14:54:00,47.1,39.0,30.26,North,350,0.0,3.0,74,0.00,,,0.00,weatherlink.com 1.10,2013-01-19 19:54:00,
2013-01-19 15:09:00,46.9,39.0,30.25,North,350,0.0,1.0,73,0.00,,,0.00,weatherlink.com 1.10,2013-01-19 20:09:00,
2013-01-19 15:24:00,46.4,37.0,30.25,North,350,0.0,1.0,71,0.00,,,0.00,weatherlink.com 1.10,2013-01-19 20:24:00,
2013-01-19 15:39:00,45.6,38.0,30.25,North,350,0.0,1.0,74,0.00,,,0.00,weatherlink.com 1.10,2013-01-19 20:39:00,
2013-01-19 15:54:00,44.9,38.0,30.24,NNW,338,0.0,2.0,78,0.00,,,0.00,weatherlink.com 1.10,2013-01-19 20:54:00,
2013-01-19 16:09:00,44.0,38.0,30.25,NNW,338,0.0,1.0,80,0.00,,,0.00,weatherlink.com 1.10,2013-01-19 21:09:00,
2013-01-19 16:24:00,43.7,38.0,30.25,NNW,338,0.0,0.0,80,0.00,,,0.00,weatherlink.com 1.10,2013-01-19 21:24:00,
2013-01-19 16:54:00,42.5,38.0,30.25,NNW,343,0.0,2.0,85,0.00,,,0.00,weatherlink.com 1.10,2013-01-19 21:54:00,
2013-01-19 17:09:00,42.4,38.0,30.25,North,5,3.0,6.0,84,0.00,,,0.00,weatherlink.com 1.10,2013-01-19 22:09:00,
2013-01-19 17:24:00,41.2,37.0,30.25,North,360,3.0,4.0,86,0.00,,,0.00,weatherlink.com 1.10,2013-01-19 22:24:00,
2013-01-19 17:39:00,39.6,37.0,30.25,North,5,0.0,1.0,89,0.00,,,0.00,weatherlink.com 1.10,2013-01-19 22:39:00,
2013-01-19 17:54:00,38.6,36.0,30.25,North,351,3.0,3.0,91,0.00,,,0.00,weatherlink.com 1.10,2013-01-19 22:54:00,
2013-01-19 18:09:00,37.8,36.0,30.25,North,351,0.0,1.0,92,0.00,,,0.00,weatherlink.com 1.10,2013-01-19 23:09:00,
2013-01-19 18:24:00,37.2,35.0,30.26,North,351,0.0,0.0,93,0.00,,,0.00,weatherlink.com 1.10,2013-01-19 23:24:00,
2013-01-19 18:54:00,36.0,35.0,30.26,North,351,0.0,1.0,94,0.00,,,0.00,weatherlink.com 1.10,2013-01-19 23:54:00,
2013-01-19 19:09:00,35.5,34.0,30.26,North,351,0.0,1.0,95,0.00,,,0.00,weatherlink.com 1.10,2013-01-20 00:09:00,
2013-01-19 19:24:00,35.1,34.0,30.26,North,351,0.0,2.0,96,0.00,,,0.00,weatherlink.com 1.10,2013-01-20 00:24:00,
2013-01-19 19:39:00,35.0,34.0,30.26,North,355,0.0,3.0,96,0.00,,,0.00,weatherlink.com 1.10,2013-01-20 00:39:00,
2013-01-19 19:54:00,34.5,34.0,30.26,North,355,0.0,0.0,96,0.00,,,0.00,weatherlink.com 1.10,2013-01-20 00:54:00,
2013-01-19 20:09:00,34.1,33.0,30.26,North,355,0.0,2.0,96,0.00,,,0.00,weatherlink.com 1.10,2013-01-20 01:09:00,
2013-01-19 20:24:00,33.6,33.0,30.25,North,355,0.0,1.0,96,0.00,,,0.00,weatherlink.com 1.10,2013-01-20 01:24:00,
2013-01-19 20:39:00,33.4,33.0,30.25,North,355,0.0,1.0,97,0.00,,,0.00,weatherlink.com 1.10,2013-01-20 01:39:00,
2013-01-19 21:09:00,32.9,32.0,30.25,North,355,0.0,0.0,97,0.00,,,0.00,weatherlink.com 1.10,2013-01-20 02:09:00,
2013-01-19 21:24:00,32.7,32.0,30.25,North,355,0.0,1.0,97,0.00,,,0.00,weatherlink.com 1.10,2013-01-20 02:24:00,
2013-01-19 21:39:00,32.6,32.0,30.24,North,355,0.0,1.0,98,0.00,,,0.00,weatherlink.com 1.10,2013-01-20 02:39:00,
2013-01-19 22:09:00,32.3,32.0,30.24,NE,48,0.0,3.0,98,0.00,,,0.00,weatherlink.com 1.10,2013-01-20 03:09:00,
2013-01-19 22:24:00,32.1,32.0,30.24,NE,34,0.0,1.0,98,0.00,,,0.00,weatherlink.com 1.10,2013-01-20 03:24:00,
2013-01-19 22:39:00,31.9,31.0,30.23,ESE,110,0.0,1.0,98,0.00,,,0.00,weatherlink.com 1.10,2013-01-20 03:39:00,
2013-01-19 22:54:00,31.9,31.0,30.23,SSW,198,0.0,3.0,98,0.00,,,0.00,weatherlink.com 1.10,2013-01-20 03:54:00,
2013-01-19 23:09:00,31.9,31.0,30.23,SSW,198,0.0,0.0,98,0.00,,,0.00,weatherlink.com 1.10,2013-01-20 04:09:00,
2013-01-19 23:24:00,31.9,31.0,30.23,SSW,198,0.0,1.0,98,0.00,,,0.00,weatherlink.com 1.10,2013-01-20 04:24:00,
2013-01-19 23:39:00,31.9,31.0,30.23,SSW,198,0.0,1.0,98,0.00,,,0.00,weatherlink.com 1.10,2013-01-20 04:39:00,
2013-01-19 23:54:00,31.7,31.0,30.23,SSW,198,0.0,0.0,98,0.00,,,0.00,weatherlink.com 1.10,2013-01-20 04:54:00,